Location: Cerroniocc
(13.7547°S, 72.0222°W)
Time: 18:30:53
(UTC+00:00)

IRS-1C Rocket - Pass Details

Date: 05 July 2020
Orbit: 800 x 806 km, 99.0° (Epoch: 11 August)

Event Time Altitude Azimuth Distance (km) Brightness Sun altitude
Rises 23:06:49 0° 162° (SSE) 3,323 6.9 -8.4°
Reaches altitude 10° 23:09:11 10° 158° (SSE) 2,388 6.2 -8.9°
Maximum altitude 23:14:24 61° 78° (ENE) 908 4.1 -10.1°
Drops below altitude 10° 23:19:34 10° 358° (N) 2,372 6.8 -11.3°
Sets 23:21:55 0° 354° (N) 3,297 7.7 -11.8°
